ONEWEB-0389 (50469 NORAD) Tracking and Keplerian Element Data

This shows tracking and keplerian element data for the satellite.

Feedback or suggestion? Click here.




ElementValue
Catalog50469
NameONEWEB-0389
Epoch Orbit130
Epoch Day140.58334491
Epoch Year2022
RAAN305.3349
Inclination87.3082
Eccentricity0.0005586
Argument of Perigee110.0615
Mean Anonmoly164.2381
Mean Motion14.63834631
Decay Rate-0.01187045
L11 50469U 21132A 22140.58334491 -.01187045 00000+0 -24349+0 0 9997
L22 50469 87.3082 305.3349 0005586 110.0615 164.2381 14.63834631 1307

Live tracking and technical data element details for ONEWEB-0389 (NORAD 50469). ONEWEB-0389 can be tracked NOW for your location showing map with azimuth and elevation plus other details from your city location.

Track the satellite on the map from your city or location and see movement details for azimuth, elevation, latitude, longitude, range, height, and movement on the map or in text.







IsCatalogInMostPopularTable: catalog: 50469, numindb: 22
Update: records affected: 1



GetName: 50469 ONEWEB-0389

Hit Count: updated at: Mon, 23 May 2022 20:51:42 GMT